sat.trackr.live / text

‹ back to catalog

SENTINEL-6A

NORAD 46984 · 2020-086A

PAYLOAD ACTIVE UNKNOWN

§ Identity

Operator
Country
ESA
Launch date
2020-11-21
Launch site
AFWTR
Launch vehicle
Mass (kg)
RCS (m²)

Purposes: earth_obs

External: N2YO · Heavens-Above · Gunter

§ Orbital elements

Epoch: 2026-09-20T00:37:11.196192Z

Period
112.42 min
Inclination
66.0409°
Eccentricity
0.0007925
Mean motion
12.80929488 rev/d
Perigee alt
1,331.6 km
Apogee alt
1,343.9 km
Semi-major
7,715.9 km
B*
7.8705e-5
RAAN
298.0721°
Arg perigee
269.0884°
Mean anomaly
90.9223°
Rev number
27,247

§ Raw data

SENTINEL-6A1 46984U 20086A   26263.02582403 -.00000043  00000+0  78705-4 0  99982 46984  66.0409 298.0721 0007925 269.0884  90.9223 12.80929488272475

JSON: /api/v1/satellites/46984 · /tle

For live sub-satellite position, see the globe view (requires WebGL).

§ Visibility from observer

Set your observer location to see the next 7 days of passes ≥ 10°. The values pass through the URL so the page stays shareable.

No JS? Fill the form by hand. The geolocation button needs JavaScript.

§ Radio — SatNOGS DB

ModeDescriptionDownlinkUplink
BPSK S-Band transmitter 2.257 GHz
FM X-Band dumps (Norway, Sweden) 8.090 GHz

2 transmitters · refreshed weekly from db.satnogs.org